2023/01/30 00:00:00,148.4,-4.5
2023/01/30 00:10:00,148.3,-4.6
2023/01/30 00:20:00,148.2,-4.6
2023/01/30 00:30:00,148.1,-4.6
2023/01/30 00:40:00,148.0,-4.6
2023/01/30 00:50:00,147.9,-4.4
2023/01/30 01:00:00,147.8,-4.6
2023/01/30 01:10:00,147.7,-4.5
2023/01/30 01:20:00,147.6,-4.6
2023/01/30 01:30:00,147.5,-4.5
2023/01/30 01:40:00,147.4,-4.7
2023/01/30 01:50:00,147.3,-4.6
2023/01/30 02:00:00,147.2,-4.7
2023/01/30 02:10:00,147.2,-4.9
2023/01/30 02:20:00,147.2,-5.1
2023/01/30 02:30:00,147.1,-5.8
2023/01/30 02:40:00,147.1,-5.9
2023/01/30 02:50:00,147.0,-7.0
2023/01/30 03:00:00,147.0,-6.1
2023/01/30 03:10:00,146.9,-6.2
2023/01/30 03:20:00,146.8,-6.2
2023/01/30 03:30:00,146.7,-6.1
2023/01/30 03:40:00,146.6,-6.0
2023/01/30 03:50:00,146.5,-6.0
2023/01/30 04:00:00,146.4,-5.7
2023/01/30 04:10:00,146.2,-5.5
2023/01/30 04:20:00,146.1,-5.2
2023/01/30 04:30:00,145.9,-4.9
2023/01/30 04:40:00,145.8,-4.8
2023/01/30 04:50:00,145.7,-4.6
2023/01/30 05:00:00,145.9,-4.6
2023/01/30 05:10:00,145.9,-4.3
2023/01/30 05:20:00,146.0,-4.6
2023/01/30 05:30:00,146.5,-4.3
2023/01/30 05:40:00,146.5,-4.4
2023/01/30 05:50:00,146.5,-4.3
2023/01/30 06:00:00,146.6,-4.3
2023/01/30 06:10:00,146.7,-4.3
2023/01/30 06:20:00,146.8,-4.3
2023/01/30 06:30:00,146.7,-4.3
2023/01/30 06:40:00,146.6,-4.3
2023/01/30 06:50:00,146.5,-4.1
2023/01/30 07:00:00,146.5,-4.0
2023/01/30 07:10:00,146.4,-3.9
2023/01/30 07:20:00,146.6,-3.9
2023/01/30 07:30:00,146.5,-4.0
2023/01/30 07:40:00,146.4,-3.5
2023/01/30 07:50:00,146.4,-3.5
2023/01/30 08:00:00,146.6,-3.6
2023/01/30 08:10:00,146.7,-3.6
2023/01/30 08:20:00,146.9,-3.6
2023/01/30 08:30:00,147.2,-3.5
2023/01/30 08:40:00,147.6,-3.4
2023/01/30 08:50:00,147.8,-3.5
2023/01/30 09:00:00,149.2,-3.2
2023/01/30 09:10:00,150.0,-3.4
2023/01/30 09:20:00,150.2,-3.2
2023/01/30 09:30:00,150.6,-3.2
2023/01/30 09:40:00,150.9,-3.4
2023/01/30 09:50:00,151.1,-3.0
2023/01/30 10:00:00,151.2,-2.7
2023/01/30 10:10:00,151.4,-2.6
2023/01/30 10:20:00,151.6,-2.9
2023/01/30 10:30:00,151.6,-2.6
2023/01/30 10:40:00,152.0,-2.6
2023/01/30 10:50:00,152.6,-2.8
2023/01/30 11:00:00,152.7,-2.6
2023/01/30 11:10:00,153.0,-2.2
2023/01/30 11:20:00,153.1,-2.7
2023/01/30 11:30:00,153.5,-2.6
2023/01/30 11:40:00,154.1,-2.7
2023/01/30 11:50:00,154.7,-2.1
2023/01/30 12:00:00,155.4,-2.3
2023/01/30 12:10:00,156.2,-1.9
2023/01/30 12:20:00,156.8,-2.4
2023/01/30 12:30:00,157.4,-2.0
2023/01/30 12:40:00,157.9,-2.1
2023/01/30 12:50:00,158.3,-2.0
2023/01/30 13:00:00,158.4,-1.7
2023/01/30 13:10:00,159.0,-2.4
2023/01/30 13:20:00,160.0,-2.4
2023/01/30 13:30:00,161.0,-2.2
2023/01/30 13:40:00,161.2,-2.5
2023/01/30 13:50:00,161.8,-1.3
2023/01/30 14:00:00,162.0,-1.7
2023/01/30 14:10:00,162.1,-2.1
2023/01/30 14:20:00,162.3,-2.1
2023/01/30 14:30:00,162.2,-2.5
2023/01/30 14:40:00,161.9,-1.8
2023/01/30 14:50:00,161.7,-1.7
2023/01/30 15:00:00,161.5,-1.7
2023/01/30 15:10:00,161.3,-2.1
2023/01/30 15:20:00,161.1,-1.9
2023/01/30 15:30:00,160.9,-2.4
2023/01/30 15:40:00,160.8,-2.5
2023/01/30 15:50:00,160.8,-2.8
2023/01/30 16:00:00,160.9,-3.2
2023/01/30 16:10:00,161.6,-3.0
2023/01/30 16:20:00,162.4,-3.1
2023/01/30 16:30:00,163.0,-3.1
2023/01/30 16:40:00,163.3,-3.3
2023/01/30 16:50:00,163.9,-3.2
2023/01/30 17:00:00,164.9,-3.5
2023/01/30 17:10:00,165.8,-3.4
2023/01/30 17:20:00,166.0,-3.6
2023/01/30 17:30:00,166.3,-3.4
2023/01/30 17:40:00,166.2,-3.7
2023/01/30 17:50:00,165.9,-3.9
2023/01/30 18:00:00,165.7,-4.0
2023/01/30 18:10:00,165.9,-3.9
2023/01/30 18:20:00,166.5,-3.8
2023/01/30 18:30:00,166.9,-3.9
2023/01/30 18:40:00,167.2,-3.7
2023/01/30 18:50:00,167.1,-3.9
2023/01/30 19:00:00,167.4,-3.9
2023/01/30 19:10:00,167.4,-4.1
2023/01/30 19:20:00,167.3,-4.0
2023/01/30 19:30:00,167.3,-3.9
2023/01/30 19:40:00,167.4,-4.1
2023/01/30 19:50:00,167.6,-3.9
2023/01/30 20:00:00,167.4,-3.5
2023/01/30 20:10:00,167.4,-4.1
2023/01/30 20:20:00,167.2,-3.8
2023/01/30 20:30:00,166.9,-4.2
2023/01/30 20:40:00,167.0,-4.2
2023/01/30 20:50:00,167.1,-4.2
2023/01/30 21:00:00,167.9,-4.2
2023/01/30 21:10:00,168.2,-3.9
2023/01/30 21:20:00,168.2,-4.3
2023/01/30 21:30:00,167.8,-4.4
2023/01/30 21:40:00,167.6,-4.1
2023/01/30 21:50:00,167.5,-4.2
2023/01/30 22:00:00,167.4,-4.3
2023/01/30 22:10:00,167.2,-4.3
2023/01/30 22:20:00,167.0,-4.2
2023/01/30 22:30:00,167.6,-4.3
2023/01/30 22:40:00,168.7,-4.3
2023/01/30 22:50:00,168.6,-4.3
2023/01/30 23:00:00,168.4,-4.3
2023/01/30 23:10:00,168.2,-4.4
2023/01/30 23:20:00,167.9,-4.7
2023/01/30 23:30:00,167.7,-4.7
2023/01/30 23:40:00,167.6,-4.4
2023/01/30 23:50:00,167.7,-4.6
